ATLAS 5 CENTAUR DEB, 47096

Orbit data source: Space-Track

ATLAS 5 CENTAUR DEB, 47096 is space debris in HEO originally from a launch on Wed, 17 Sep 2014 UTC launched from the Air Force Eastern Test Range (AFETR). Debris objects in space refer to the collection of defunct objects orbiting the Earth. Examples of debris include non-operational satellites, rocket bodies, and fragments generated from explosions, collisions, or faulty payload assembly.

Loading next visibility...
ATLAS 5 CENTAUR DEB details
Identifier
47096, 2014-055DE
Orbit
HEO
Last TLE update1 day ago
Origin
Flag of USULA (US)
ManufacturerUnknown
MissionSpacecraft
Bus & MotorUnknown
MassUnknown
Launch date (UTC)
2014-09-17 (10 years ago)
Launch vehicleUnknown
Launch site
Air Force Eastern Test Range (AFETR)
Object type
Payload
Rocket body
Debris
Shape & HBRUnknown
Radar Cross SectionRCS unknown

Expand to show TLE details & history

TLE from 1 day ago
0 ATLAS 5 CENTAUR DEB
1 47096U 14055DE  24338.97966915 -.00000027  00000-0  00000-0 0  9993
2 47096  19.7529 219.9437 4850435  33.3410 349.6163  1.79153609 27089
Epoch: 2024-12-03T23:30Z
Definitive object data (Epoch: 2024-12-03T23:30:43.414Z)
Latitude-0.00009°
Longitude154.0489°
Altitude9,172.2 km
Speed6.111 km/s
True Right ascension14h 40m 02s
True Declination0° 00' 00"
Sunlit
Object was in daylight at TLE epoch
Visualization TLE readout
Latitude-13.67316°
Longitude16.49643°
Altitude35,479.634 km
Speed2.264 km/s
Apparent Right ascension05h 09m 13s
Apparent Declination-20° 32' 30"
Sunlit
Object is in daylight
Visualization observer readout
Local Sidereal Time08:22:01
Azimuth226.191° WSW
Elevation14.689°
Doppler factor1
Orbital elements
Apogee altitude36,150.991 km
Perigee altitude8,369.344 km
Semi-major axis28,638.304 km
Eccentricity0.4850435
Inclination19.7529°
RAAN219.9437°
Arg. of periapsis33.341°
True anomaly326.98969°
Mean anomaly349.6163°
Eccentric anomaly340.20451°
Mean motion0.44784 °/min
BSTARUnknown
Orbital period803.86 mins
Loading maneuver chart data...

ATLAS 5 CENTAUR DEB Visibility forecast

Observer location: undefined°, undefined

Span
Click to sort rows by Start time (UTC) header in descending order
Start Az.
Max El. time (UTC)
Max El. Az.
Max El.
End time (UTC)
End Az.
58 mins2024-12-05 10:23:38.423Z226.179° WSW2024-12-05 10:23:38.423Z226.179° WSW14.221°2024-12-05 11:21:38.423Z227.451° WSW
106 mins2024-12-05 14:32:38.423Z212.133° SW2024-12-05 15:43:38.423Z155.001° SSE24.04°2024-12-05 16:18:38.423Z99.333° ESE
|